Tracking 18630 objects as of 26-May-2017
HD Live streaming from Space Station
objects crossing your sky now

AMC-10 (GE-10)

Track AMC-10 (GE-10) now!
AMC-10 (GE-10) is classified as:


NORAD ID: 28154
Int'l Code: 2004-003A
Perigee: 35,783.1 km
Apogee: 35,804.1 km
Inclination: 0.0 °
Period: 1,436.1 minutes
Semi major axis: 42164 km
RCS: 21.2115 m2 (large)
Launch date: February 5, 2004
Source: SOCIETE EUROPEENNE DES SATELLITES (SES)
Launch site: AIR FORCE EASTERN TEST RANGE (AFETR)

24 C-band transponders.
Your satellite tracking list
Your tracking list is empty





NASA's NSSDC Master Catalog

Two Line Element Set (TLE):
1 28154U 04003A   17145.46565812 +.00000081 +00000-0 +00000-0 0  9991
2 28154 000.0107 331.7010 0002492 102.7974 201.3721 01.00272416048744
Source of the keplerian elements: AFSPC